Location: Cormont
(50.5693°N, 1.7416°E)
Time: 04:23:54
(UTC+00:00)

SL-27 R/B - Pass Details

Date: 21 October 2019
Orbit: 421 x 472 km, 74.7° (Epoch: 20 November)

Event Time Altitude Azimuth Distance (km) Brightness Sun altitude
Rises 18:19:48 0° 348° (NNW) 2,391 6.3 -15.0°
Reaches altitude 10° 18:22:21 10° 9° (N) 1,519 5.0 -15.4°
Enters shadow 18:23:39 16° 30° (NNE) 1,217 4.3 -15.6°
